Location: Hawks Ness
(60.2333°N, 1.1667°W)
Time: 02:45:27
(UTC+00:00)

IDEFIX/ARIANE 42P - Pass Details

Date: 22 October 2019
Orbit: 785 x 803 km, 98.3° (Epoch: 12 November)

Event Time Altitude Azimuth Distance (km) Brightness Sun altitude
Rises 03:00:46 0° 19° (NNE) 3,322 6.5 -29.4°
Reaches altitude 10° 03:03:26 10° 31° (NNE) 2,385 5.8 -29.2°
Maximum altitude 03:08:00 29° 91° (E) 1,420 4.3 -28.7°
Enters shadow 03:12:29 10° 151° (SSE) 2,341 5.0 -28.2°
